TimeMST,TemperatureF,Dew PointF,Humidity,Sea Level PressureIn,VisibilityMPH,Wind Direction,Wind SpeedMPH,Gust SpeedMPH,PrecipitationIn,Events,Conditions,WindDirDegrees,DateUTC
12:15 AM,46.4,15.8,29,29.92,10.0,Calm,Calm,-,N/A,,Clear,0,2014-02-04 07:15:00
12:35 AM,44.6,15.8,31,29.92,10.0,Calm,Calm,-,N/A,,Clear,0,2014-02-04 07:35:00
12:55 AM,44.6,17.6,34,29.92,10.0,Calm,Calm,-,N/A,,Clear,0,2014-02-04 07:55:00
1:15 AM,46.4,15.8,29,29.92,10.0,Calm,Calm,-,N/A,,Clear,0,2014-02-04 08:15:00
1:35 AM,44.6,15.8,31,29.92,10.0,East,3.5,-,N/A,,Clear,100,2014-02-04 08:35:00
1:55 AM,44.6,15.8,31,29.93,10.0,Calm,Calm,-,N/A,,Clear,0,2014-02-04 08:55:00
2:15 AM,42.8,15.8,34,29.94,10.0,Calm,Calm,-,N/A,,Clear,0,2014-02-04 09:15:00
2:35 AM,42.8,17.6,36,29.94,10.0,Calm,Calm,-,N/A,,Clear,0,2014-02-04 09:35:00
2:55 AM,42.8,17.6,36,29.94,10.0,Calm,Calm,-,N/A,,Clear,0,2014-02-04 09:55:00
3:15 AM,42.8,17.6,36,29.95,10.0,Calm,Calm,-,N/A,,Clear,0,2014-02-04 10:15:00
3:35 AM,41.0,17.6,39,29.95,10.0,East,3.5,-,N/A,,Clear,80,2014-02-04 10:35:00
3:55 AM,41.0,17.6,39,29.95,10.0,Calm,Calm,-,N/A,,Clear,0,2014-02-04 10:55:00
4:15 AM,39.2,19.4,45,29.96,10.0,Calm,Calm,-,N/A,,Clear,0,2014-02-04 11:15:00
4:35 AM,41.0,17.6,39,29.96,10.0,Calm,Calm,-,N/A,,Clear,0,2014-02-04 11:35:00
4:55 AM,39.2,19.4,45,29.96,10.0,ESE,3.5,-,N/A,,Clear,120,2014-02-04 11:55:00
5:15 AM,41.0,19.4,42,29.97,10.0,Calm,Calm,-,N/A,,Clear,0,2014-02-04 12:15:00
5:35 AM,39.2,19.4,45,29.97,10.0,Calm,Calm,-,N/A,,Clear,0,2014-02-04 12:35:00
5:55 AM,39.2,19.4,45,29.98,10.0,Calm,Calm,-,N/A,,Clear,0,2014-02-04 12:55:00
6:15 AM,39.2,19.4,45,29.99,10.0,Calm,Calm,-,N/A,,Clear,0,2014-02-04 13:15:00
6:35 AM,37.4,19.4,48,29.99,10.0,Calm,Calm,-,N/A,,Clear,0,2014-02-04 13:35:00
6:55 AM,39.2,19.4,45,29.99,10.0,Calm,Calm,-,N/A,,Clear,0,2014-02-04 13:55:00
7:15 AM,39.2,19.4,45,30.00,10.0,Calm,Calm,-,N/A,,Clear,0,2014-02-04 14:15:00
7:35 AM,37.4,19.4,48,30.01,10.0,Calm,Calm,-,N/A,,Clear,0,2014-02-04 14:35:00
7:55 AM,37.4,21.2,52,30.01,10.0,Calm,Calm,-,N/A,,Clear,0,2014-02-04 14:55:00
8:15 AM,39.2,19.4,45,30.03,10.0,Calm,Calm,-,N/A,,Clear,0,2014-02-04 15:15:00
8:35 AM,41.0,21.2,45,30.03,10.0,Calm,Calm,-,N/A,,Clear,0,2014-02-04 15:35:00
8:55 AM,39.2,21.2,49,30.04,10.0,Calm,Calm,-,N/A,,Clear,0,2014-02-04 15:55:00
9:15 AM,41.0,23.0,49,30.05,10.0,Calm,Calm,-,N/A,,Clear,0,2014-02-04 16:15:00
9:35 AM,44.6,23.0,43,30.06,10.0,Calm,Calm,-,N/A,,Clear,0,2014-02-04 16:35:00
9:55 AM,44.6,23.0,43,30.07,10.0,Calm,Calm,-,N/A,,Clear,0,2014-02-04 16:55:00
10:15 AM,46.4,23.0,40,30.07,10.0,Calm,Calm,-,N/A,,Clear,0,2014-02-04 17:15:00
10:35 AM,48.2,23.0,37,30.08,10.0,SW,3.5,-,N/A,,Clear,220,2014-02-04 17:35:00
10:55 AM,50.0,23.0,35,30.08,10.0,SW,3.5,-,N/A,,Clear,220,2014-02-04 17:55:00
11:15 AM,50.0,23.0,35,30.08,10.0,SW,3.5,-,N/A,,Clear,220,2014-02-04 18:15:00
11:35 AM,50.0,23.0,35,30.07,10.0,South,3.5,-,N/A,,Clear,180,2014-02-04 18:35:00
11:55 AM,53.6,23.0,30,30.07,10.0,WSW,3.5,-,N/A,,Clear,250,2014-02-04 18:55:00
12:15 PM,53.6,23.0,30,30.06,10.0,SW,4.6,-,N/A,,Clear,230,2014-02-04 19:15:00
12:35 PM,55.4,23.0,29,30.05,10.0,WSW,3.5,-,N/A,,Clear,250,2014-02-04 19:35:00
12:55 PM,57.2,24.8,29,30.03,10.0,SSW,3.5,-,N/A,,Clear,210,2014-02-04 19:55:00
1:15 PM,57.2,24.8,29,30.02,10.0,West,5.8,-,N/A,,Clear,260,2014-02-04 20:15:00
1:35 PM,59.0,24.8,27,30.01,10.0,SSW,6.9,-,N/A,,Clear,210,2014-02-04 20:35:00
1:55 PM,59.0,24.8,27,30.00,10.0,SW,5.8,-,N/A,,Clear,230,2014-02-04 20:55:00
2:15 PM,60.8,24.8,25,30.00,10.0,WSW,9.2,-,N/A,,Clear,250,2014-02-04 21:15:00
2:35 PM,60.8,23.0,23,29.99,10.0,South,6.9,-,N/A,,Clear,190,2014-02-04 21:35:00
2:55 PM,59.0,23.0,25,29.99,10.0,South,8.1,-,N/A,,Clear,190,2014-02-04 21:55:00
3:15 PM,59.0,23.0,25,29.98,10.0,SSW,6.9,-,N/A,,Clear,210,2014-02-04 22:15:00
3:35 PM,59.0,23.0,25,29.98,10.0,South,3.5,-,N/A,,Clear,170,2014-02-04 22:35:00
3:55 PM,59.0,23.0,25,29.98,10.0,SSE,3.5,-,N/A,,Clear,160,2014-02-04 22:55:00
4:15 PM,59.0,23.0,25,29.98,10.0,South,4.6,-,N/A,,Clear,190,2014-02-04 23:15:00
4:35 PM,60.8,23.0,23,29.98,10.0,Calm,Calm,-,N/A,,Clear,0,2014-02-04 23:35:00
4:55 PM,59.0,23.0,25,29.98,10.0,Calm,Calm,-,N/A,,Clear,0,2014-02-04 23:55:00
5:15 PM,59.0,23.0,25,29.98,10.0,Calm,Calm,-,N/A,,Clear,0,2014-02-05 00:15:00
5:35 PM,59.0,23.0,25,29.97,10.0,Calm,Calm,-,N/A,,Clear,0,2014-02-05 00:35:00
5:55 PM,59.0,23.0,25,29.98,10.0,Calm,Calm,-,N/A,,Clear,0,2014-02-05 00:55:00
6:15 PM,59.0,24.8,27,29.98,10.0,NW,3.5,-,N/A,,Clear,320,2014-02-05 01:15:00
6:35 PM,59.0,23.0,25,29.98,10.0,Calm,Calm,-,N/A,,Clear,0,2014-02-05 01:35:00
6:55 PM,59.0,23.0,25,29.98,10.0,Calm,Calm,-,N/A,,Clear,0,2014-02-05 01:55:00
7:15 PM,57.2,23.0,27,29.99,10.0,Calm,Calm,-,N/A,,Clear,0,2014-02-05 02:15:00
7:35 PM,57.2,21.2,25,29.99,10.0,East,4.6,-,N/A,,Clear,90,2014-02-05 02:35:00
7:55 PM,57.2,21.2,25,29.99,10.0,East,4.6,-,N/A,,Clear,80,2014-02-05 02:55:00
8:15 PM,57.2,23.0,27,30.00,10.0,SE,6.9,-,N/A,,Clear,140,2014-02-05 03:15:00
8:35 PM,55.4,23.0,29,30.01,10.0,South,4.6,-,N/A,,Clear,170,2014-02-05 03:35:00
8:55 PM,55.4,23.0,29,30.01,10.0,South,3.5,-,N/A,,Clear,170,2014-02-05 03:55:00
9:15 PM,55.4,23.0,29,30.02,10.0,SW,4.6,-,N/A,,Clear,220,2014-02-05 04:15:00
9:35 PM,55.4,24.8,31,30.02,10.0,Calm,Calm,-,N/A,,Clear,0,2014-02-05 04:35:00
9:55 PM,55.4,23.0,29,30.03,10.0,SE,5.8,-,N/A,,Clear,140,2014-02-05 04:55:00
10:15 PM,55.4,23.0,29,30.03,10.0,Calm,Calm,-,N/A,,Clear,0,2014-02-05 05:15:00
10:35 PM,55.4,24.8,31,30.04,10.0,Calm,Calm,-,N/A,,Clear,0,2014-02-05 05:35:00
10:55 PM,55.4,24.8,31,30.04,10.0,Calm,Calm,-,N/A,,Clear,0,2014-02-05 05:55:00
11:15 PM,55.4,24.8,31,30.05,10.0,Calm,Calm,-,N/A,,Clear,0,2014-02-05 06:15:00
11:35 PM,55.4,24.8,31,30.05,10.0,Calm,Calm,-,N/A,,Clear,0,2014-02-05 06:35:00
11:55 PM,53.6,24.8,33,30.05,10.0,Calm,Calm,-,N/A,,Clear,0,2014-02-05 06:55:00